Regional Weather Roundup
Issued by NWS Glasgow, MT

Home | Current Version | Previous Version | Text Only | Print | Product List | Glossary On
Versions: 1 2 3 4 5 6 7 8 9 10 11 12 13 14 15 16 17 18 19 20 21 22 23 24 25 26 27 28 29 30 31 32 33 34 35 36 37 38 39 40 41 42 43 44 45 46 47 48 49 50
000
ASUS45 KGGW 011715
RWRGGW
HOURLY WEATHER ROUNDUP FOR NORTHEAST MONTANA
NATIONAL WEATHER SERVICE GLASGOW MONTANA
1000 AM MST SUN FEB 01 2015

NOTE: "FAIR" INDICATES FEW OR NO CLOUDS BELOW 12,000 FEET WITH NO
SIGNIFICANT WEATHER AND/OR OBSTRUCTIONS TO VISISBILITY.

NORTHEAST MONTANA


CITY           SKY/WX    TMP DP  RH WIND       PRES   REMARKS
GLASGOW        MOSUNNY   -1  -6  79 SE10      30.39F WCI -17
PLENTYWOOD       N/A     -2  -6  83 S2          N/A
WOLF POINT     SUNNY     -3  -9  75 SE3       30.45F
JORDAN           N/A     -2  -7  79 NW3       30.36F
WINNETT          N/A     14   9  80 S3G13       N/A
SIDNEY         SUNNY     -6 -29  31 SE3       30.49F
GLENDIVE       SUNNY     -2  -8  78 S6        30.43S
SCOBEY           N/A     -4 -12  68 CALM      30.32F

FORT PECK REPORTS


CITY           SKY/WX    TMP DP  RH WIND       PRES   REMARKS
FORT PECK        N/A      3  -2  79 SE8         N/A
THE PINES        N/A      4   0  83 S3          N/A

SOUTHEAST MONTANA


CITY           SKY/WX    TMP DP  RH WIND       PRES   REMARKS
BILLINGS       SUNNY      9   5  84 S6        30.30F
MILES CITY     SUNNY      3  -1  83 S6        30.41F
BAKER          SUNNY     -1  -5  82 W9        30.38F
LIVINGSTON     MOSUNNY   14   9  80 E3        30.18F

CENTRAL MONTANA


CITY           SKY/WX    TMP DP  RH WIND       PRES   REMARKS
HAVRE          SUNNY     -5 -10  79 E9        30.26F
LEWISTOWN      SUNNY      9   3  77 SE7       30.16F
GREAT FALLS    SUNNY     11   8  88 S5        30.13F
CUT BANK       SUNNY      4   1  88 SE3       30.09F
HELENA         MOSUNNY   16  10  77 CALM      30.22F
BUTTE          MOSUNNY   16  13  88 CALM      30.13F
BOZEMAN        MOSUNNY   16  13  88 N3        30.21F

WESTERN MONTANA


CITY           SKY/WX    TMP DP  RH WIND       PRES   REMARKS
MISSOULA       CLOUDY    27  19  72 SE10      30.20F
KALISPELL      NOT AVBL

NORTH DAKOTA


CITY           SKY/WX    TMP DP  RH WIND       PRES   REMARKS
WILLISTON      SUNNY     -4 -10  75 SW5       30.47F
DICKINSON      SUNNY     -6 -11  79 W5        30.39S
MINOT          SUNNY     -4 -15  59 W8        30.50R
BISMARCK       SUNNY     -3 -15  56 NW7       30.53R

SOUTHERN SASKATCHEWAN


CITY           SKY/WX    TMP DP  RH WIND       PRES   REMARKS
REGINA         MOSUNNY   -8 -13  77 SE8       30.37F
ESTEVAN        SUNNY     -4 -11  71 SW5       30.44F
SWIFT CURRENT  SUNNY      1   0  92 S21G28    30.21F WCI -20




USA.gov is the U.S. government's official web portal to all federal, state and local government web resources and services.